SCP
1 1 0 0 0 0 0 0 0 0 0 0 0 0 1 1 0 0 1 1 1 1 1 1 1 1 1 1 1 1 2 2 3 2 2 1 1 0 0 1 1 1 1
1 1 1 0 0 0 1 1 0 0 0 0 0 0 0 0 0 0 1 1 1 1 1 1 2 1 1 1 1 1 1 2 2 3 2 1 1 1 1 1 1 1 1
1 1 1 1 1 1 1 1 0 0 0 0 0 0 0 0 0 0 1 1 1 1 1 2 2 1 1 1 1 1 1 1 2 2 2 2 1 1 1 1 1 1 1
1 1 1 1 1 1 1 1 0 0 0 0 0 0 1 1 0 0 1 1 1 1 1 1 1 1 1 1 1 1 1 1 1 1 1 1 1 1 1 1 1 1 1
1 1 1 1 1 1 1 1 1 0 0 0 0 0 1 1 1 1 1 1 1 1 1 1 1 1 1 1 1 1 1 1 1 1 1 1 1 1 1 1 1 1 1
0 0 0 0 1 1 1 1 1 1 0 0 0 0 1 1 1 1 1 1 1 1 1 1 1 1 1 1 1 1 1 1 1 1 1 1 1 1 1 1 1 1 1
0 0 1 1 1 1 1 1 1 0 0 0 0 0 0 0 0 0 0 0 0 1 1 1 1 1 1 1 1 1 1 1 1 1 1 1 1 1 1 1 1 1 1
1 1 1 1 1 1 1 1 1 0 0 0 0 0 0 0 0 0 0 0 0 0 1 1 1 1 1 1 1 1 1 1 1 1 1 1 1 1 1 1 1 1 1
0 1 1 1 1 1 1 1 1 0 0 0 0 0 0 0 0 0 0 0 0 0 1 1 1 1 1 1 1 1 1 1 2 2 2 2 2 1 1 1 1 1 1
0 0 1 1 1 1 1 1 0 0 0 0 0 0 0 0 0 0 0 0 0 0 1 1 1 1 1 1 1 1 1 1 1 2 2 2 2 2 1 1 1 1 1
0 0 1 1 1 1 1 1 1 0 0 0 0 0 0 0 0 0 0 0 1 1 1 1 1 1 1 1 1 1 1 1 1 2 2 2 2 2 2 1 1 1 1
0 0 1 1 1 1 1 1 1 0 0 0 0 1 1 1 0 0 0 0 1 1 1 1 1 1 1 1 1 1 1 1 1 1 1 1 2 2 2 2 2 1 1
1 1 1 1 1 1 1 1 1 0 0 0 0 0 1 1 1 0 0 0 1 1 1 1 1 1 1 1 1 1 1 1 1 1 1 1 1 2 2 2 2 1 1
1 1 1 1 1 1 1 1 1 1 0 0 0 0 0 1 1 0 0 0 0 1 1 1 1 1 1 1 1 1 1 1 1 1 1 1 1 1 2 2 2 1 1
1 1 1 1 1 1 1 1 1 1 1 0 0 0 0 0 1 0 0 0 1 1 1 1 1 1 1 1 1 1 1 1 1 1 0 0 1 1 1 2 1 1 1
1 1 1 1 1 1 1 1 1 1 1 1 0 0 0 0 0 0 0 1 1 1 1 1 1 1 1 1 1 1 1 1 1 1 0 0 0 1 1 1 1 1 1
0 1 1 1 1 1 2 2 2 2 1 1 1 1 1 1 1 1 1 1 1 1 1 1 2 2 1 1 1 1 1 2 1 1 0 0 0 1 1 1 1 1 0
1 1 1 1 1 1 2 2 2 2 2 1 1 1 1 1 1 1 1 1 1 1 1 1 1 2 1 1 1 1 1 2 2 1 1 0 0 0 1 0 0 0 0
1 1 1 1 2 2 2 2 2 2 2 2 1 1 1 1 1 1 1 1 1 1 1 1 1 1 1 1 2 2 2 2 2 2 1 1 0 0 0 0 0 0 0
1 1 2 2 2 3 3 2 2 2 2 2 2 2 1 1 1 1 1 1 1 1 1 1 1 2 2 2 2 3 3 3 3 2 2 1 1 0 0 0 0 0 0
1 1 2 2 3 3 3 3 3 2 2 2 2 2 2 2 1 1 1 1 1 1 1 2 2 2 2 2 3 3 3 3 2 2 2 2 1 1 0 0 0 0 0
2 2 2 2 3 3 3 3 3 3 3 3 3 2 2 2 2 1 1 1 1 1 1 2 2 2 2 2 2 2 2 2 2 2 2 2 1 1 0 0 0 0 0
3 3 2 2 3 3 3 2 2 3 3 3 3 3 4 4 3 1 1 1 1 1 1 1 1 1 2 2 2 2 2 2 1 1 1 1 1 1 0 0 0 0 0
4 4 4 3 3 3 2 2 2 2 3 3 3 4 5 6 4 2 1 1 1 1 1 1 1 1 1 1 1 1 1 1 1 1 1 1 1 0 0 0 0 0 0
5 5 5 5 4 4 3 2 2 2 2 3 3 3 4 4 3 2 2 2 2 1 1 0 0 0 0 0 1 1 1 1 1 1 1 1 0 0 0 0 0 0 0
6 6 6 6 5 4 3 2 2 2 2 2 2 2 2 2 2 2 2 2 2 1 1 0 0 0 0 0 0 1 1 1 1 0 0 0 0 0 0 0 0 0 0
Wind_Speed
2 2 1 1 1 1 1 1 1 1 1 1 2 3 3 4 3 3 3 7 7 6 7 8 9 8 8 8 7 7 7 7 7 7 8 8 8 8 9 9 9 9 10
2 2 1 1 1 1 1 2 2 1 1 1 2 2 3 3 4 3 3 4 7 7 8 8 8 8 7 7 7 7 7 6 7 7 7 7 8 8 8 8 8 8 8
3 2 2 1 1 1 1 1 1 1 1 1 1 1 2 2 3 4 3 2 3 6 8 8 8 7 7 7 6 6 6 6 6 7 7 7 7 8 8 8 8 8 8
4 3 2 1 0 1 1 1 1 1 1 1 1 1 1 2 3 3 3 3 2 3 5 8 8 7 7 7 7 7 6 6 6 6 6 6 6 7 8 8 8 8 8
4 3 2 1 1 1 1 1 1 1 1 1 1 1 1 1 2 3 3 3 3 3 2 5 8 8 8 8 7 7 7 6 6 6 5 5 6 7 7 7 7 7 8
3 3 2 1 1 2 1 1 1 1 1 1 1 1 1 1 2 2 2 2 3 3 3 3 3 4 7 7 6 6 6 6 6 5 5 5 5 6 6 7 7 7 7
3 3 2 2 2 2 1 1 1 1 0 1 2 1 2 1 1 1 1 2 2 2 2 3 2 2 2 4 5 5 5 5 5 5 5 6 6 6 6 6 7 7 7
3 3 3 2 2 1 1 1 1 1 0 1 2 2 2 3 2 1 0 1 1 1 2 3 2 2 2 1 2 5 5 5 5 6 6 6 6 5 6 6 6 7 7
3 2 3 2 2 2 2 1 1 2 1 0 1 3 2 1 1 2 1 1 0 1 1 2 3 3 3 2 2 4 5 4 5 6 7 6 6 6 6 6 6 6 7
3 3 3 3 2 2 2 1 1 1 2 1 1 0 2 3 2 1 2 2 1 1 1 2 2 3 3 2 3 4 5 5 6 6 7 6 6 6 6 6 6 6 6
2 3 3 3 2 2 2 1 1 1 1 1 1 0 1 1 1 2 1 2 2 1 1 2 2 2 2 2 3 4 5 5 5 6 6 5 6 6 6 6 6 6 6
1 2 3 2 2 2 2 1 1 1 1 1 1 1 1 1 1 2 2 2 2 2 1 2 2 2 3 3 4 6 6 5 4 4 4 5 5 5 6 6 6 6 6
1 2 2 2 2 2 2 2 2 1 1 1 1 0 1 1 1 2 2 1 1 2 2 1 2 2 2 2 3 6 5 5 5 5 5 5 5 5 5 5 6 6 6
3 3 3 3 3 2 2 2 1 1 1 1 0 0 0 0 1 1 2 2 0 2 2 3 1 1 2 2 4 5 4 5 6 6 6 6 6 5 5 5 5 6 5
3 3 3 3 3 2 2 2 1 1 1 1 1 0 0 0 0 1 1 2 2 1 3 3 2 2 2 2 4 3 3 6 7 7 7 6 7 6 6 6 6 6 6
3 4 3 3 3 2 2 2 1 1 1 1 1 0 0 1 0 0 1 1 2 2 2 3 2 2 2 2 3 3 4 6 8 8 7 7 7 7 7 7 6 6 6
4 4 4 4 3 2 2 2 2 2 1 1 0 0 1 1 0 1 0 1 1 1 1 3 2 2 2 2 2 2 3 3 4 7 7 6 6 6 7 7 7 6 6
4 5 5 4 4 3 3 3 2 2 2 2 1 1 1 1 1 1 0 0 1 1 2 2 2 2 2 2 2 3 3 3 3 5 6 6 6 6 6 6 6 6 6
4 5 5 5 4 4 3 3 3 3 3 3 2 2 2 1 1 1 1 1 1 0 1 1 2 2 1 2 2 3 3 2 3 3 5 6 6 5 5 5 5 5 6
5 5 5 5 5 4 4 3 3 3 3 2 2 2 2 2 3 2 1 1 1 0 0 0 1 1 1 2 1 1 2 2 2 2 2 3 3 4 5 5 5 5 5
6 5 5 4 4 4 4 4 4 4 3 3 3 3 3 3 3 3 2 2 2 1 1 1 1 1 1 1 1 1 2 3 3 1 1 2 1 2 2 4 5 6 5
5 5 5 5 5 4 5 7 5 4 3 3 3 3 3 2 3 3 3 3 3 3 2 2 2 2 3 2 2 1 1 1 3 2 1 2 1 2 2 3 4 5 5
5 5 5 4 4 4 6 6 7 4 3 3 3 3 3 2 2 2 2 2 2 3 4 4 3 4 3 3 2 2 2 2 4 3 1 2 1 2 3 3 5 5 5
5 5 5 5 4 4 4 5 5 4 3 3 3 3 3 2 2 1 1 1 2 3 4 3 4 5 4 4 4 4 3 3 3 2 2 2 2 2 2 2 4 5 4
4 4 4 4 4 3 4 4 5 2 2 2 3 2 3 3 3 1 1 1 3 3 4 3 4 4 5 5 3 1 1 0 2 3 1 2 2 2 2 2 2 3 4
4 4 3 4 4 4 4 4 5 2 2 2 2 2 3 3 2 2 2 2 3 4 3 3 3 3 3 3 3 3 3 2 2 3 2 1 1 1 2 2 1 1 2
Wind_Direction
135 135 142 144 165 157 174 180 187 190 183 180 179 164 164 166 164 164 171 175 177 174 175 176 176 181 188 192 196 201 205 209 212 211 210 212 215 218 217 216 219 220 222
144 141 139 156 186 180 170 169 183 186 187 171 172 163 160 160 160 162 173 184 186 184 181 181 181 187 189 194 201 206 210 214 215 215 216 216 214 215 217 219 221 223 224
145 139 138 142 199 189 152 149 156 121 146 144 148 163 152 156 160 165 177 183 189 192 187 188 190 193 196 198 203 207 213 215 214 214 217 216 214 215 219 224 226 226 228
138 132 131 143 139 108 116 126 124 100 95 123 156 193 158 153 164 169 175 183 190 200 196 194 193 195 201 209 211 211 215 214 213 214 215 215 216 218 222 224 227 228 229
132 132 132 147 116 100 99 127 110 129 138 150 177 173 170 172 185 183 179 185 194 201 197 200 202 202 206 214 217 217 218 215 212 211 211 214 219 220 222 221 225 229 230
137 131 130 123 112 108 90 86 105 118 152 164 161 136 209 205 191 190 189 185 196 203 195 199 203 218 215 217 220 222 222 219 215 213 211 215 218 217 221 221 222 224 226
139 134 135 125 119 118 132 121 117 107 29 101 86 31 352 340 191 203 198 178 192 204 175 184 185 197 215 219 228 231 230 227 222 218 217 221 226 224 224 227 227 225 228
146 148 140 149 141 125 94 83 114 114 261 121 124 101 21 353 342 301 228 177 178 186 187 185 179 185 188 195 226 225 228 231 231 229 224 224 228 231 228 233 232 229 230
142 141 145 146 141 137 140 143 136 130 148 299 134 141 142 206 307 327 318 296 200 188 211 188 183 199 199 203 217 229 225 231 236 235 228 226 226 233 235 235 236 233 232
147 147 145 140 140 137 143 165 123 133 135 161 303 106 156 156 144 305 323 320 279 214 218 202 203 205 205 198 206 214 219 227 236 237 233 227 226 230 230 231 236 236 233
154 153 147 140 144 148 150 128 98 121 139 160 170 142 69 74 116 144 259 302 320 293 235 216 214 211 209 204 213 219 216 217 225 234 235 233 231 230 228 227 232 237 236
158 157 154 150 152 153 156 149 138 126 127 122 139 129 135 147 184 158 193 243 269 282 263 236 221 220 219 217 226 218 218 216 221 232 237 240 238 236 233 233 237 239 240
176 189 171 164 160 162 158 144 130 124 133 133 158 162 152 191 184 163 161 220 259 281 293 271 239 221 221 215 234 225 223 220 222 232 240 243 244 241 239 237 241 241 241
192 185 176 173 169 159 154 144 135 162 129 145 178 155 162 240 156 160 165 157 280 306 296 278 283 232 231 224 235 224 227 226 225 232 236 238 240 244 241 243 243 243 242
180 172 166 162 160 154 153 145 154 180 142 160 194 169 147 284 128 161 152 150 154 235 277 275 280 271 259 236 233 228 233 234 232 236 238 238 238 239 238 239 240 239 240
175 162 158 153 151 149 146 143 147 162 146 206 196 145 319 287 317 15 146 141 147 167 238 263 258 264 255 263 248 240 240 233 232 235 238 238 239 239 238 239 240 239 239
168 166 164 156 156 162 159 155 174 170 184 245 268 164 261 272 313 339 52 93 128 150 213 279 282 289 277 281 295 282 256 237 238 238 240 237 241 243 241 239 240 239 240
175 174 169 163 172 177 174 171 192 193 203 227 236 215 268 286 300 288 232 253 227 184 179 265 289 297 278 272 279 282 282 257 245 242 234 232 239 243 243 242 241 238 238
173 171 168 174 181 182 181 189 193 204 219 225 218 211 228 209 273 270 247 259 255 281 179 216 274 283 295 303 313 301 297 296 268 254 234 236 242 247 245 242 239 233 233
175 178 177 181 184 185 183 190 196 204 223 231 223 216 213 205 224 237 244 244 233 317 342 273 284 293 303 303 320 304 309 304 284 278 271 250 243 253 253 248 243 233 229
183 181 177 185 187 188 195 193 202 206 216 231 237 230 221 216 224 227 230 214 200 199 221 248 263 290 285 295 274 267 285 297 285 269 283 277 259 257 259 251 240 235 231
182 175 183 188 195 206 205 201 198 212 210 213 229 241 236 233 250 256 256 234 209 200 205 215 235 244 256 251 254 260 269 308 293 280 237 273 242 256 260 250 245 236 232
183 184 189 191 203 215 211 209 207 200 209 215 219 228 245 242 249 259 281 290 272 245 214 199 218 236 236 232 228 253 245 241 249 260 226 270 256 253 256 258 248 240 242
184 189 193 193 196 217 212 209 201 198 208 216 212 210 209 234 249 228 259 297 288 273 247 218 219 235 237 231 217 220 232 254 268 273 191 241 255 252 266 265 255 248 248
191 196 189 187 195 217 206 191 179 179 204 233 231 216 206 221 251 242 221 282 302 300 295 283 259 255 257 252 226 184 211 255 284 279 235 214 251 265 274 273 267 245 244
186 182 188 190 192 209 211 194 180 181 202 241 251 236 228 226 242 228 202 222 265 277 303 330 328 316 296 282 247 202 195 197 234 267 252 201 243 225 289 277 265 256 252